This demonstration page uses our WeatherBlox Daily Observations layout. Learn more.

Left ArrowRight Arrow

31.31129, -92.44514

Hourly Observations for December 23, 2020

Temp ( °F °C ) Dew Point ( °F °C ) Humidity (%) Winds ( mph kmh ) Pressure ( in mb ) Visibility ( mi km ) Precip ( " mm )
12:53 am 00:53 Cloudy 50 10 45 7.2 83 83 SE 8 13 30.09 1019 10 16 0.00 0.00
1:53 am 01:53 Cloudy 51 10.6 46 7.8 83 83 SE 9 15 30.06 1018 10 16 0.00 0.00
2:53 am 02:53 Cloudy 51 10.6 46 7.8 83 83 SE 8 13 30.05 1018 10 16 0.00 0.00
3:53 am 03:53 Mostly Cloudy 50 10 47 8.3 89 89 SE 9 15 30.02 1017 10 16 0.00 0.00
4:53 am 04:53 Cloudy 51 10.6 48 8.9 89 89 SE 7 11 30.02 1017 10 16 0.00 0.00
5:53 am 05:53 Cloudy 52 11.1 49 9.4 89 89 SE 6 9 30.03 1017 10 16 0.00 0.00
6:53 am 06:53 Cloudy 52 11.1 49 9.4 89 89 SE 6 9 30.04 1017 10 16 0.00 0.00
7:53 am 07:53 Cloudy 53 11.7 50 10 89 89 SE 9 15 30.03 1017 10 16 0.00 0.00
8:53 am 08:53 Cloudy 55 12.8 52 11.1 90 90 SE 8 13 30.04 1017 10 16 0.00 0.00
9:53 am 09:53 Mostly Cloudy 57 13.9 53 11.7 87 87 SSE 12 19 30.03 1017 10 16 0.00 0.00
10:53 am 10:53 Mostly Cloudy 61 16.1 56 13.3 84 84 SSE 14 22 29.99 1016 10 16 0.00 0.00
11:53 am 11:53 Cloudy 63 17.2 58 14.4 84 84 SSE 13 20 29.95 1014 10 16 0.00 0.00
12:51 pm 12:51 Cloudy 64 18 61 16 88 88 S 13 20 29.89 1012 10 16 0.00 0.00
12:53 pm 12:53 Cloudy 65 18.3 60 15.6 84 84 S 13 20 29.90 1013 10 16 0.00 0.00
1:53 pm 13:53 Cloudy 68 20 62 16.7 81 81 S 12 19 29.87 1011 10 16 0.00 0.00
2:53 pm 14:53 Mostly Cloudy 68 20 62 16.7 81 81 S 12 19 29.85 1011 10 16 0.00 0.00
3:36 pm 15:36 Cloudy 67 19.4 63 17.2 87 87 SSE 9 15 29.83 1010 10 16 0.00 0.00
3:53 pm 15:53 Cloudy 67 19.4 63 17.2 87 87 S 9 15 29.84 1010 10 16 0.00 0.00
4:53 pm 16:53 Partly Cloudy 65 18.3 63 17.2 93 93 undefined N/A 29.83 1010 10 16 0.00 0.00
5:17 pm 17:17 Mostly Cloudy 65 18.3 63 17.2 93 93 SSE 8 13 29.82 1010 8 13 0.00 0.00
5:53 pm 17:53 Mostly Cloudy 63 17.2 63 17.2 100 100 SSE 7 11 29.83 1010 10 16 0.00 0.00
6:11 pm 18:11 Partly Cloudy 63 17.2 63 17.2 100 100 SSE 8 13 29.81 1009 9 14 0.00 0.00
6:53 pm 18:53 Cloudy with Light Rain 64 17.8 63 17.2 96 96 SSE 8 13 29.81 1010 10 16 0.00 0.00
7:00 pm 19:00 Cloudy 64 17.8 64 17.8 100 100 S 7 11 29.80 1009 10 16 0.00 0.00
7:22 pm 19:22 Mostly Cloudy 65 18.3 64 17.8 97 97 SSE 10 17 29.79 1009 10 16 0.00 0.00
7:42 pm 19:42 Cloudy with Light Rain 65 18.3 64 17.8 97 97 WSW 24 39 29.77 1008 6 10 0.02 0.51
7:46 pm 19:46 Cloudy with Heavy Rain 62 16.7 61 16.1 96 96 WNW 24 39 29.82 1010 2 3 0.11 2.79
7:49 pm 19:49 Cloudy with Heavy Rain 61 16 61 16 100 100 NW 24 39 29.81 1009 2 3 0.13 3.30
7:53 pm 19:53 Cloudy with Heavy Rain 61 16.1 59 15 93 93 NW 15 24 29.82 1010 2 2 0.14 3.56
7:55 pm 19:55 Cloudy with Heavy Rain 61 16.1 59 15 93 93 NW 14 22 29.81 1009 2 3 0.01 0.25
8:03 pm 20:03 Cloudy with Heavy Rain 61 16.1 59 15 93 93 W 10 17 29.80 1009 3 5 0.05 1.27
8:08 pm 20:08 Cloudy with Heavy Rain 60 15.6 59 15 96 96 WNW 10 17 29.81 1009 3 4 0.08 2.03
8:26 pm 20:26 Cloudy with Heavy Rain 59 15 59 15 100 100 W 12 19 29.82 1010 1 2 0.35 8.89
8:34 pm 20:34 Mostly Cloudy with Heavy Rain 58 14.4 58 14.4 100 100 N 8 13 29.79 1009 1 1 0.63 16.00
8:43 pm 20:43 Cloudy with Light Rain 58 14.4 58 14.4 100 100 N 10 17 29.79 1009 2 3 0.66 16.76
8:48 pm 20:48 Cloudy with Rain 59 15 59 15 100 100 N 9 15 29.79 1009 5 8 0.69 17.53
8:53 pm 20:53 Cloudy with Heavy Rain 59 15 59 15 100 100 NNW 15 24 29.81 1010 3 5 0.74 18.80
8:56 pm 20:56 Cloudy with Heavy Rain 59 15 59 15 100 100 NW 17 28 29.82 1010 2 3 0.10 2.54
9:06 pm 21:06 Cloudy with Heavy Rain 59 15 59 15 100 100 W 7 11 29.82 1010 1 1 0.59 14.99
9:26 pm 21:26 Cloudy with Heavy Rain 60 15.6 60 15.6 100 100 NNW 13 20 29.81 1009 2 2 0.91 23.11
9:30 pm 21:30 Cloudy with Light Rain 60 15.6 60 15.6 100 100 NW 10 17 29.82 1010 3 5 0.91 23.11
9:53 pm 21:53 Cloudy with Light Rain 58 14.4 56 13.3 93 93 NNW 20 31 29.87 1011 10 16 0.92 23.37
10:02 pm 22:02 Cloudy with Light Rain 58 14.4 55 12.8 90 90 NNW 16 26 29.86 1011 10 16 0.00 0.00
10:53 pm 22:53 Cloudy 55 12.8 53 11.7 93 93 NNW 9 15 29.90 1012 10 16 0.00 0.00
11:53 pm 23:53 Cloudy 53 11.7 40 4.4 61 61 NNW 17 28 29.93 1014 10 16 0.02 0.51

Powered by AerisWeather